FW4512 Weather Reports


time (UTC)temp
C
wind
direction
speed
KPH
gust
KPH
rain 1hr
cm
rain 24hr
cm
rain mn
cm
humidity
%
barometer
mb
20260504081538 -17 0.0 0.0 0.00 2.13 0.00 1012.4
20260504044532 -17 0.0 0.0 0.00 2.13 2.13 1014.1
20260504043037 -17 0.0 0.0 0.00 2.13 2.13 1014.1
20260504041522 -17 0.0 0.0 0.00 2.13 2.13 1014.2
20260504040018 -17 0.0 0.0 0.00 2.13 2.13 1014.1
20260504034512 -17 0.0 0.0 0.00 2.13 2.13 1014.1
20260504033012 -17 0.0 0.0 0.00 2.13 2.13 1014.1
20260504031503 -17 0.0 0.0 0.00 2.13 2.13 1014.1
20260504030057 -17 0.0 0.0 0.00 2.13 2.13 1013.8
20260504024552 -17 0.0 0.0 0.00 2.13 2.13 1013.5
20260504023048 -17 0.0 0.0 0.00 2.13 2.13 1013.4
20260504021547 -17 0.0 0.0 0.00 2.13 2.13 1013.2
20260504020036 -17 0.0 0.0 0.00 2.13 2.13 1013.2
20260504014538 -17 0.0 0.0 0.00 2.13 2.13 1013.0
20260504013027 -17 0.0 0.0 0.00 2.13 2.13 1012.7
20260504011526 -17 0.0 0.0 0.00 2.13 2.13 1012.7
20260504010101 -17 0.0 0.0 0.00 2.13 2.13 1012.6
20260504004559 -17 0.0 0.0 0.00 2.13 2.13 1012.6
20260504003013 -17 0.0 0.0 0.00 2.13 2.13 1012.5
20260504001513 27 301 0.0 1.6 0.00 2.13 2.13 90 1012.4
20260504000044 27 283 0.0 1.6 0.00 2.13 2.13 89 1012.1
20260503234542 27 285 0.0 1.6 0.00 2.13 2.13 88 1011.7
20260503233045 28 317 0.0 6.4 0.00 2.13 2.13 87 1011.8
20260503231539 28 291 0.0 1.6 0.00 2.13 2.13 87 1011.7
20260503230038 28 356 0.0 0.0 0.00 0.00 2.13 87 1011.3
20260503224537 28 301 0.0 4.8 0.00 2.13 2.13 85 1011.5
20260503223036 29 156 0.0 8.0 0.00 2.13 2.13 85 1011.4
20260503221536 28 18 0.0 3.2 0.00 2.13 2.13 89 1011.7
20260503220034 28 267 0.0 6.4 0.00 2.13 2.13 91 1011.9
20260503214532 27 53 0.0 1.6 0.00 2.13 2.13 94 1012.1
20260503213030 26 173 0.0 1.6 0.03 2.13 2.13 94 1012.2
20260503211530 25 134 0.0 1.6 0.05 2.13 2.13 93 1012.3
20260503210027 25 15 0.0 3.2 0.10 2.13 2.13 93 1012.8
20260503204526 24 116 3.2 6.4 0.53 2.13 2.13 92 1012.5
20260503203023 25 312 1.6 6.4 0.81 2.11 2.11 91 1012.8
20260503201518 27 98 1.6 6.4 0.79 2.08 2.08 88 1012.8
20260503200017 27 297 0.0 3.2 0.71 2.03 2.03 89 1012.7
20260503194516 29 87 0.0 3.2 0.23 1.52 1.52 83 1013.4
20260503193014 30 318 1.6 6.4 0.00 1.30 1.30 77 1013.0
20260503191527 31 131 0.0 9.7 0.00 1.30 1.30 74 1012.7
20260503190012 31 134 1.6 9.7 0.00 1.30 1.30 74 1012.7
20260503184509 31 163 0.0 9.7 0.00 1.30 1.30 77 1012.8
20260503183002 30 41 1.6 12.9 0.00 1.30 1.30 79 1013.0
20260503181505 30 305 1.6 6.4 0.05 1.30 1.30 80 1013.1
20260503180122 30 160 1.6 9.7 1.14 1.30 1.30 82 1013.5
20260503174557 28 307 1.6 4.8 1.30 1.30 1.30 86 1013.4
20260503173026 27 6 0.0 1.6 1.30 1.30 1.30 89 1013.7
20260503171526 26 301 1.6 24.1 1.27 1.27 1.27 75 1014.0